Location: Les Salelles
(44.4192°N, 4.1044°E)
Time: 11:09:02
(UTC+00:00)

Cosmos 2228 - Pass Details

Date: 20 January 2021
Orbit: 589 x 617 km, 82.5° (Epoch: 28 February)

Event Time Altitude Azimuth Distance (km) Brightness Sun altitude
Rises 17:02:51 0° 356° (N) 2,838 6.3 -5.1°
Reaches altitude 10° 17:05:07 10° 2° (N) 1,934 5.4 -5.4°
Maximum altitude 17:09:17 50° 78° (ENE) 763 3.2 -6.1°
Drops below altitude 10° 17:13:26 10° 154° (SSE) 1,932 5.6 -6.8°
Sets 17:15:41 0° 160° (SSE) 2,834 6.5 -7.2°
